<?xml version="1.0" encoding="UTF-8" standalone="no" ?>
<gpx xmlns="http://www.topografix.com/GPX/1/1" xmlns:xsi="http://www.w3.org/2001/XMLSchema-instance" xsi:schemaLocation="http://www.topografix.com/GPX/1/1 http://www.topografix.com/GPX/1/1/gpx.xsd" version="1.1" creator="VisuGPX - https://www.visugpx.com">
  <metadata>
    <name>Rialle_Autour_8-22km</name>
    <desc><![CDATA[gnerando idor:6722432_8173011_8173016_12476141_12476155_12511586_12530915_12533090_13050648]]></desc>
  </metadata>
  <wpt lat="47.55079" lon="-1.37723">
    <ele>56.1</ele>
    <name><![CDATA[0000725]]></name>
    <type><![CDATA[Point de départ]]></type>
  </wpt>
  <wpt lat="47.52565" lon="-1.40637">
    <ele>31.3</ele>
    <name><![CDATA[0000726]]></name>
    <desc><![CDATA[<p><br /><h3>Nom: Segment: 1</h3><br />Heure de départ: 05/30/2021 09:30<br/>Heure d'arrivée: 05/30/2021 12:31<br/>Distance: 15,3km (03:00)<br/>Temps déplacement: 02:45<br/>Vitesse moyenne: 5,07 km/h<br/>Vitesse moyenne mouv.: 5,52 km/h<br/>Vitesse Max.: 20,75 km/h<br/>Altitude minimale: 29 m<br/>Altitude maximale: 61 m<br/>Vitesse de montée: 135,3 m/h<br/>Vitesse de descente: -132,1 m/h<br/>Gain d'altitude: 143 m<br/>Perte d'altitude: -165 m<br/>Temps de montée: 01:03<br/>Temps de descente: 01:15<br/></p>]]></desc>
    <type><![CDATA[Point d'arrivée]]></type>
  </wpt>
  <wpt lat="47.52578" lon="-1.40648">
    <ele>31.5</ele>
    <name><![CDATA[0000727]]></name>
    <type><![CDATA[Point de départ]]></type>
  </wpt>
  <wpt lat="47.55083" lon="-1.37712">
    <ele>56.4</ele>
    <name><![CDATA[0000728]]></name>
    <desc><![CDATA[<p><br /><h3>Nom: Segment: 2</h3><br />Heure de départ: 05/30/2021 13:12<br/>Heure d'arrivée: 05/30/2021 14:32<br/>Distance: 6,7km (01:19)<br/>Temps déplacement: 01:16<br/>Vitesse moyenne: 5,05 km/h<br/>Vitesse moyenne mouv.: 5,23 km/h<br/>Vitesse Max.: 8,06 km/h<br/>Altitude minimale: 34 m<br/>Altitude maximale: 68 m<br/>Vitesse de montée: 179 m/h<br/>Vitesse de descente: -145,6 m/h<br/>Gain d'altitude: 102 m<br/>Perte d'altitude: -77 m<br/>Temps de montée: 00:34<br/>Temps de descente: 00:32<br/></p>]]></desc>
    <type><![CDATA[Point d'arrivée]]></type>
  </wpt>
  <trk>
    <name><![CDATA[Riaille_OreeBois2Etangs_13.7km-12511586]]></name>
    <extensions>
      <line xmlns="http://www.topografix.com/GPX/gpx_style/0/2">
        <color>FFFF00</color>
        <width>4</width>
      </line>
    </extensions>
    <trkseg>
      <trkpt lat="47.51761" lon="-1.29222">
        <ele>38</ele>
        <time>2023-11-11T19:03:46Z</time>
      </trkpt>
      <trkpt lat="47.51745" lon="-1.29094">
        <ele>35</ele>
        <time>2023-11-11T19:05:43Z</time>
      </trkpt>
      <trkpt lat="47.51753" lon="-1.29047">
        <ele>34</ele>
        <time>2023-11-11T19:06:27Z</time>
      </trkpt>
      <trkpt lat="47.51798" lon="-1.29059">
        <ele>34</ele>
        <time>2023-11-11T19:07:28Z</time>
      </trkpt>
      <trkpt lat="47.51801" lon="-1.29014">
        <ele>32</ele>
        <time>2023-11-11T19:08:09Z</time>
      </trkpt>
      <trkpt lat="47.51797" lon="-1.28989">
        <ele>32</ele>
        <time>2023-11-11T19:08:32Z</time>
      </trkpt>
      <trkpt lat="47.51769" lon="-1.28967">
        <ele>31</ele>
        <time>2023-11-11T19:09:14Z</time>
      </trkpt>
      <trkpt lat="47.51779" lon="-1.28889">
        <ele>30</ele>
        <time>2023-11-11T19:10:26Z</time>
      </trkpt>
      <trkpt lat="47.51779" lon="-1.28889">
        <ele>30</ele>
        <time>2023-11-11T19:10:26Z</time>
      </trkpt>
      <trkpt lat="47.5196" lon="-1.2891">
        <ele>31</ele>
        <time>2023-11-11T19:14:28Z</time>
      </trkpt>
      <trkpt lat="47.51993" lon="-1.28933">
        <ele>30</ele>
        <time>2023-11-11T19:15:17Z</time>
      </trkpt>
      <trkpt lat="47.52092" lon="-1.28978">
        <ele>32</ele>
        <time>2023-11-11T19:17:35Z</time>
      </trkpt>
      <trkpt lat="47.52124" lon="-1.29036">
        <ele>34</ele>
        <time>2023-11-11T19:18:42Z</time>
      </trkpt>
      <trkpt lat="47.5216" lon="-1.29058">
        <ele>36</ele>
        <time>2023-11-11T19:19:34Z</time>
      </trkpt>
      <trkpt lat="47.52168" lon="-1.29047">
        <ele>36</ele>
        <time>2023-11-11T19:19:49Z</time>
      </trkpt>
      <trkpt lat="47.52199" lon="-1.28997">
        <ele>36</ele>
        <time>2023-11-11T19:20:50Z</time>
      </trkpt>
      <trkpt lat="47.52232" lon="-1.289">
        <ele>36</ele>
        <time>2023-11-11T19:22:28Z</time>
      </trkpt>
      <trkpt lat="47.52239" lon="-1.2887">
        <ele>36</ele>
        <time>2023-11-11T19:22:57Z</time>
      </trkpt>
      <trkpt lat="47.52238" lon="-1.28834">
        <ele>36</ele>
        <time>2023-11-11T19:23:29Z</time>
      </trkpt>
      <trkpt lat="47.52193" lon="-1.28548">
        <ele>42</ele>
        <time>2023-11-11T19:27:54Z</time>
      </trkpt>
      <trkpt lat="47.52197" lon="-1.28499">
        <ele>43</ele>
        <time>2023-11-11T19:28:38Z</time>
      </trkpt>
      <trkpt lat="47.52231" lon="-1.28278">
        <ele>45</ele>
        <time>2023-11-11T19:32:02Z</time>
      </trkpt>
      <trkpt lat="47.52279" lon="-1.28112">
        <ele>46</ele>
        <time>2023-11-11T19:34:45Z</time>
      </trkpt>
      <trkpt lat="47.52288" lon="-1.28099">
        <ele>46</ele>
        <time>2023-11-11T19:35:02Z</time>
      </trkpt>
      <trkpt lat="47.52288" lon="-1.28099">
        <ele>46</ele>
        <time>2023-11-11T19:35:02Z</time>
      </trkpt>
      <trkpt lat="47.52306" lon="-1.28096">
        <ele>46</ele>
        <time>2023-11-11T19:35:26Z</time>
      </trkpt>
      <trkpt lat="47.52433" lon="-1.28058">
        <ele>48</ele>
        <time>2023-11-11T19:38:19Z</time>
      </trkpt>
      <trkpt lat="47.52621" lon="-1.27993">
        <ele>48</ele>
        <time>2023-11-11T19:42:37Z</time>
      </trkpt>
      <trkpt lat="47.52993" lon="-1.27883">
        <ele>58</ele>
        <time>2023-11-11T19:51:03Z</time>
      </trkpt>
      <trkpt lat="47.52993" lon="-1.27883">
        <ele>58</ele>
        <time>2023-11-11T19:51:03Z</time>
      </trkpt>
      <trkpt lat="47.52976" lon="-1.27966">
        <ele>55</ele>
        <time>2023-11-11T19:52:21Z</time>
      </trkpt>
      <trkpt lat="47.52972" lon="-1.28046">
        <ele>54</ele>
        <time>2023-11-11T19:53:33Z</time>
      </trkpt>
      <trkpt lat="47.52955" lon="-1.28199">
        <ele>54</ele>
        <time>2023-11-11T19:55:53Z</time>
      </trkpt>
      <trkpt lat="47.5293" lon="-1.28386">
        <ele>53</ele>
        <time>2023-11-11T19:58:45Z</time>
      </trkpt>
      <trkpt lat="47.5288" lon="-1.28836">
        <ele>51</ele>
        <time>2023-11-11T20:05:36Z</time>
      </trkpt>
      <trkpt lat="47.5288" lon="-1.28836">
        <ele>51</ele>
        <time>2023-11-11T20:05:36Z</time>
      </trkpt>
      <trkpt lat="47.53028" lon="-1.28765">
        <ele>54</ele>
        <time>2023-11-11T20:09:03Z</time>
      </trkpt>
      <trkpt lat="47.53073" lon="-1.28897">
        <ele>50</ele>
        <time>2023-11-11T20:11:17Z</time>
      </trkpt>
      <trkpt lat="47.53114" lon="-1.28997">
        <ele>48</ele>
        <time>2023-11-11T20:13:02Z</time>
      </trkpt>
      <trkpt lat="47.53151" lon="-1.2921">
        <ele>52</ele>
        <time>2023-11-11T20:16:20Z</time>
      </trkpt>
      <trkpt lat="47.53147" lon="-1.29239">
        <ele>52</ele>
        <time>2023-11-11T20:16:47Z</time>
      </trkpt>
      <trkpt lat="47.53164" lon="-1.29233">
        <ele>53</ele>
        <time>2023-11-11T20:17:10Z</time>
      </trkpt>
      <trkpt lat="47.53171" lon="-1.29258">
        <ele>53</ele>
        <time>2023-11-11T20:17:35Z</time>
      </trkpt>
      <trkpt lat="47.53173" lon="-1.29274">
        <ele>53</ele>
        <time>2023-11-11T20:17:49Z</time>
      </trkpt>
      <trkpt lat="47.53167" lon="-1.29307">
        <ele>53</ele>
        <time>2023-11-11T20:18:20Z</time>
      </trkpt>
      <trkpt lat="47.53158" lon="-1.29463">
        <ele>53</ele>
        <time>2023-11-11T20:20:41Z</time>
      </trkpt>
      <trkpt lat="47.53169" lon="-1.29653">
        <ele>54</ele>
        <time>2023-11-11T20:23:33Z</time>
      </trkpt>
      <trkpt lat="47.53165" lon="-1.29752">
        <ele>55</ele>
        <time>2023-11-11T20:25:02Z</time>
      </trkpt>
      <trkpt lat="47.53152" lon="-1.29838">
        <ele>53</ele>
        <time>2023-11-11T20:26:22Z</time>
      </trkpt>
      <trkpt lat="47.53126" lon="-1.29916">
        <ele>51</ele>
        <time>2023-11-11T20:27:40Z</time>
      </trkpt>
      <trkpt lat="47.53107" lon="-1.29997">
        <ele>50</ele>
        <time>2023-11-11T20:28:57Z</time>
      </trkpt>
      <trkpt lat="47.53092" lon="-1.30072">
        <ele>50</ele>
        <time>2023-11-11T20:30:08Z</time>
      </trkpt>
      <trkpt lat="47.53091" lon="-1.30105">
        <ele>50</ele>
        <time>2023-11-11T20:30:38Z</time>
      </trkpt>
      <trkpt lat="47.53103" lon="-1.30204">
        <ele>50</ele>
        <time>2023-11-11T20:32:08Z</time>
      </trkpt>
      <trkpt lat="47.53122" lon="-1.30286">
        <ele>50</ele>
        <time>2023-11-11T20:33:26Z</time>
      </trkpt>
      <trkpt lat="47.53136" lon="-1.30322">
        <ele>49</ele>
        <time>2023-11-11T20:34:04Z</time>
      </trkpt>
      <trkpt lat="47.53171" lon="-1.30389">
        <ele>48</ele>
        <time>2023-11-11T20:35:20Z</time>
      </trkpt>
      <trkpt lat="47.53212" lon="-1.30521">
        <ele>46</ele>
        <time>2023-11-11T20:37:31Z</time>
      </trkpt>
      <trkpt lat="47.53215" lon="-1.30556">
        <ele>46</ele>
        <time>2023-11-11T20:38:03Z</time>
      </trkpt>
      <trkpt lat="47.53215" lon="-1.30626">
        <ele>45</ele>
        <time>2023-11-11T20:39:06Z</time>
      </trkpt>
      <trkpt lat="47.53238" lon="-1.30643">
        <ele>45</ele>
        <time>2023-11-11T20:39:40Z</time>
      </trkpt>
      <trkpt lat="47.53238" lon="-1.30643">
        <ele>45</ele>
        <time>2023-11-11T20:39:40Z</time>
      </trkpt>
      <trkpt lat="47.53333" lon="-1.30691">
        <ele>43</ele>
        <time>2023-11-11T20:41:54Z</time>
      </trkpt>
      <trkpt lat="47.53357" lon="-1.30732">
        <ele>42</ele>
        <time>2023-11-11T20:42:43Z</time>
      </trkpt>
      <trkpt lat="47.53459" lon="-1.30896">
        <ele>45</ele>
        <time>2023-11-11T20:46:04Z</time>
      </trkpt>
      <trkpt lat="47.5368" lon="-1.30832">
        <ele>52</ele>
        <time>2023-11-11T20:51:04Z</time>
      </trkpt>
      <trkpt lat="47.53751" lon="-1.30707">
        <ele>49</ele>
        <time>2023-11-11T20:53:31Z</time>
      </trkpt>
      <trkpt lat="47.53902" lon="-1.30668">
        <ele>60</ele>
        <time>2023-11-11T20:56:56Z</time>
      </trkpt>
      <trkpt lat="47.53972" lon="-1.30449">
        <ele>46</ele>
        <time>2023-11-11T21:00:34Z</time>
      </trkpt>
      <trkpt lat="47.54009" lon="-1.30388">
        <ele>47</ele>
        <time>2023-11-11T21:01:48Z</time>
      </trkpt>
      <trkpt lat="47.54052" lon="-1.30376">
        <ele>52</ele>
        <time>2023-11-11T21:02:47Z</time>
      </trkpt>
      <trkpt lat="47.54142" lon="-1.30455">
        <ele>56</ele>
        <time>2023-11-11T21:05:06Z</time>
      </trkpt>
      <trkpt lat="47.54173" lon="-1.30407">
        <ele>58</ele>
        <time>2023-11-11T21:06:06Z</time>
      </trkpt>
      <trkpt lat="47.5424" lon="-1.30416">
        <ele>61</ele>
        <time>2023-11-11T21:07:36Z</time>
      </trkpt>
      <trkpt lat="47.54294" lon="-1.30394">
        <ele>66</ele>
        <time>2023-11-11T21:08:51Z</time>
      </trkpt>
      <trkpt lat="47.54304" lon="-1.30431">
        <ele>66</ele>
        <time>2023-11-11T21:09:26Z</time>
      </trkpt>
      <trkpt lat="47.54255" lon="-1.30652">
        <ele>65</ele>
        <time>2023-11-11T21:12:56Z</time>
      </trkpt>
      <trkpt lat="47.54095" lon="-1.30777">
        <ele>67</ele>
        <time>2023-11-11T21:16:57Z</time>
      </trkpt>
      <trkpt lat="47.53855" lon="-1.3078">
        <ele>60</ele>
        <time>2023-11-11T21:22:18Z</time>
      </trkpt>
      <trkpt lat="47.53696" lon="-1.30836">
        <ele>53</ele>
        <time>2023-11-11T21:25:56Z</time>
      </trkpt>
      <trkpt lat="47.53549" lon="-1.30883">
        <ele>45</ele>
        <time>2023-11-11T21:29:16Z</time>
      </trkpt>
      <trkpt lat="47.53453" lon="-1.3091">
        <ele>45</ele>
        <time>2023-11-11T21:31:27Z</time>
      </trkpt>
      <trkpt lat="47.53423" lon="-1.30985">
        <ele>43</ele>
        <time>2023-11-11T21:32:45Z</time>
      </trkpt>
      <trkpt lat="47.53415" lon="-1.31076">
        <ele>45</ele>
        <time>2023-11-11T21:34:08Z</time>
      </trkpt>
      <trkpt lat="47.535" lon="-1.31592">
        <ele>49</ele>
        <time>2023-11-11T21:42:07Z</time>
      </trkpt>
      <trkpt lat="47.53382" lon="-1.31678">
        <ele>44</ele>
        <time>2023-11-11T21:45:02Z</time>
      </trkpt>
      <trkpt lat="47.53343" lon="-1.31855">
        <ele>43</ele>
        <time>2023-11-11T21:47:50Z</time>
      </trkpt>
      <trkpt lat="47.53378" lon="-1.3198">
        <ele>42</ele>
        <time>2023-11-11T21:49:52Z</time>
      </trkpt>
      <trkpt lat="47.5334" lon="-1.32323">
        <ele>36</ele>
        <time>2023-11-11T21:55:05Z</time>
      </trkpt>
      <trkpt lat="47.53123" lon="-1.32387">
        <ele>36</ele>
        <time>2023-11-11T22:00:00Z</time>
      </trkpt>
      <trkpt lat="47.53079" lon="-1.32355">
        <ele>37</ele>
        <time>2023-11-11T22:01:06Z</time>
      </trkpt>
      <trkpt lat="47.53001" lon="-1.3239">
        <ele>34</ele>
        <time>2023-11-11T22:02:54Z</time>
      </trkpt>
      <trkpt lat="47.529" lon="-1.32132">
        <ele>33</ele>
        <time>2023-11-11T22:07:23Z</time>
      </trkpt>
      <trkpt lat="47.5282" lon="-1.32018">
        <ele>32</ele>
        <time>2023-11-11T22:09:51Z</time>
      </trkpt>
      <trkpt lat="47.5273" lon="-1.32226">
        <ele>33</ele>
        <time>2023-11-11T22:13:34Z</time>
      </trkpt>
      <trkpt lat="47.52629" lon="-1.32282">
        <ele>32</ele>
        <time>2023-11-11T22:15:58Z</time>
      </trkpt>
      <trkpt lat="47.52554" lon="-1.32365">
        <ele>31</ele>
        <time>2023-11-11T22:18:03Z</time>
      </trkpt>
      <trkpt lat="47.52516" lon="-1.32513">
        <ele>32</ele>
        <time>2023-11-11T22:20:25Z</time>
      </trkpt>
      <trkpt lat="47.52429" lon="-1.32504">
        <ele>32</ele>
        <time>2023-11-11T22:22:22Z</time>
      </trkpt>
      <trkpt lat="47.52625" lon="-1.31759">
        <ele>36</ele>
        <time>2023-11-11T22:34:22Z</time>
      </trkpt>
      <trkpt lat="47.52655" lon="-1.31722">
        <ele>35</ele>
        <time>2023-11-11T22:35:14Z</time>
      </trkpt>
      <trkpt lat="47.52713" lon="-1.31632">
        <ele>35</ele>
        <time>2023-11-11T22:37:06Z</time>
      </trkpt>
      <trkpt lat="47.52779" lon="-1.31172">
        <ele>43</ele>
        <time>2023-11-11T22:44:10Z</time>
      </trkpt>
      <trkpt lat="47.52849" lon="-1.31063">
        <ele>44</ele>
        <time>2023-11-11T22:46:26Z</time>
      </trkpt>
      <trkpt lat="47.52991" lon="-1.30791">
        <ele>44</ele>
        <time>2023-11-11T22:51:36Z</time>
      </trkpt>
      <trkpt lat="47.52865" lon="-1.30685">
        <ele>46</ele>
        <time>2023-11-11T22:54:49Z</time>
      </trkpt>
      <trkpt lat="47.5283" lon="-1.30662">
        <ele>47</ele>
        <time>2023-11-11T22:55:40Z</time>
      </trkpt>
      <trkpt lat="47.52734" lon="-1.30634">
        <ele>46</ele>
        <time>2023-11-11T22:57:51Z</time>
      </trkpt>
      <trkpt lat="47.52701" lon="-1.30615">
        <ele>46</ele>
        <time>2023-11-11T22:58:38Z</time>
      </trkpt>
      <trkpt lat="47.52544" lon="-1.30462">
        <ele>48</ele>
        <time>2023-11-11T23:02:49Z</time>
      </trkpt>
      <trkpt lat="47.52259" lon="-1.30112">
        <ele>52</ele>
        <time>2023-11-11T23:11:03Z</time>
      </trkpt>
      <trkpt lat="47.5225" lon="-1.301">
        <ele>52</ele>
        <time>2023-11-11T23:11:19Z</time>
      </trkpt>
      <trkpt lat="47.52244" lon="-1.30077">
        <ele>52</ele>
        <time>2023-11-11T23:11:41Z</time>
      </trkpt>
      <trkpt lat="47.52244" lon="-1.30077">
        <ele>52</ele>
        <time>2023-11-11T23:11:41Z</time>
      </trkpt>
      <trkpt lat="47.52283" lon="-1.3009">
        <ele>52</ele>
        <time>2023-11-11T23:12:34Z</time>
      </trkpt>
      <trkpt lat="47.52283" lon="-1.3009">
        <ele>52</ele>
        <time>2023-11-11T23:12:34Z</time>
      </trkpt>
      <trkpt lat="47.52286" lon="-1.30082">
        <ele>52</ele>
        <time>2023-11-11T23:12:43Z</time>
      </trkpt>
      <trkpt lat="47.52339" lon="-1.30013">
        <ele>51</ele>
        <time>2023-11-11T23:14:17Z</time>
      </trkpt>
      <trkpt lat="47.52364" lon="-1.29951">
        <ele>50</ele>
        <time>2023-11-11T23:15:22Z</time>
      </trkpt>
      <trkpt lat="47.52198" lon="-1.29798">
        <ele>49</ele>
        <time>2023-11-11T23:19:43Z</time>
      </trkpt>
      <trkpt lat="47.52157" lon="-1.29799">
        <ele>50</ele>
        <time>2023-11-11T23:20:38Z</time>
      </trkpt>
      <trkpt lat="47.52154" lon="-1.29796">
        <ele>50</ele>
        <time>2023-11-11T23:20:42Z</time>
      </trkpt>
      <trkpt lat="47.52031" lon="-1.29371">
        <ele>41</ele>
        <time>2023-11-11T23:27:39Z</time>
      </trkpt>
      <trkpt lat="47.52031" lon="-1.29356">
        <ele>40</ele>
        <time>2023-11-11T23:27:53Z</time>
      </trkpt>
      <trkpt lat="47.52012" lon="-1.29349">
        <ele>40</ele>
        <time>2023-11-11T23:28:19Z</time>
      </trkpt>
      <trkpt lat="47.51853" lon="-1.29289">
        <ele>41</ele>
        <time>2023-11-11T23:31:58Z</time>
      </trkpt>
      <trkpt lat="47.51864" lon="-1.29239">
        <ele>40</ele>
        <time>2023-11-11T23:32:45Z</time>
      </trkpt>
      <trkpt lat="47.51869" lon="-1.29161">
        <ele>36</ele>
        <time>2023-11-11T23:33:56Z</time>
      </trkpt>
      <trkpt lat="47.51867" lon="-1.29128">
        <ele>35</ele>
        <time>2023-11-11T23:34:26Z</time>
      </trkpt>
      <trkpt lat="47.5186" lon="-1.29112">
        <ele>35</ele>
        <time>2023-11-11T23:34:43Z</time>
      </trkpt>
      <trkpt lat="47.5181" lon="-1.2911">
        <ele>35</ele>
        <time>2023-11-11T23:35:50Z</time>
      </trkpt>
      <trkpt lat="47.51797" lon="-1.29123">
        <ele>35</ele>
        <time>2023-11-11T23:36:10Z</time>
      </trkpt>
      <trkpt lat="47.51782" lon="-1.2921">
        <ele>38</ele>
        <time>2023-11-11T23:37:31Z</time>
      </trkpt>
      <trkpt lat="47.51772" lon="-1.2922">
        <ele>38</ele>
        <time>2023-11-11T23:37:47Z</time>
      </trkpt>
      <trkpt lat="47.51761" lon="-1.29222">
        <ele>38</ele>
        <time>2023-11-11T23:38:02Z</time>
      </trkpt>
    </trkseg>
  </trk>
</gpx>